This demonstration page uses our WeatherBlox Daily Observations layout. Learn more.

Left ArrowRight Arrow

Hourly Observations for May 28, 2022

Temp ( °F °C ) Dew Point ( °F °C ) Humidity (%) Winds ( mph kmh ) Pressure ( in mb ) Visibility ( mi km ) Precip ( " mm )
12:56 am 00:56 Clear 70 21.1 57 13.9 64 64 ESE 8 13 29.71 1006 10 16 0.00 0.00
1:56 am 01:56 Clear 66 18.9 56 13.3 70 70 SSE 10 17 29.67 1005 10 16 0.00 0.00
2:56 am 02:56 Clear 63 17.2 56 13.3 78 78 SSE 9 15 29.67 1005 10 16 0.00 0.00
3:56 am 03:56 Clear 63 17.2 56 13.3 78 78 SSW 8 13 29.65 1004 10 16 0.00 0.00
4:56 am 04:56 Clear 66 18.9 55 12.8 68 68 S 24 39 29.60 1002 10 16 0.00 0.00
5:56 am 05:56 Clear 64 17.8 55 12.8 73 73 SSW 8 13 29.62 1003 10 16 0.00 0.00
6:56 am 06:56 Sunny 63 17.2 55 12.8 76 76 S 8 13 29.63 1003 10 16 0.00 0.00
7:56 am 07:56 Sunny 66 18.9 56 13.3 70 70 S 10 17 29.66 1004 10 16 0.00 0.00
8:56 am 08:56 Sunny 70 21.1 57 13.9 64 64 S 14 22 29.65 1004 10 16 0.00 0.00
9:56 am 09:56 Sunny 74 23.3 58 14.4 57 57 S 15 24 29.64 1004 10 16 0.00 0.00
10:56 am 10:56 Sunny 77 25 59 15 54 54 SSE 16 26 29.62 1003 10 16 0.00 0.00
11:56 am 11:56 Sunny 79 26.1 59 15 50 50 S 16 26 29.60 1002 10 16 0.00 0.00
12:56 pm 12:56 Sunny 80 26.7 60 15.6 51 51 S 15 24 29.58 1002 10 16 0.00 0.00
1:56 pm 13:56 Sunny 82 27.8 61 16.1 49 49 S 17 28 29.55 1001 10 16 0.00 0.00
2:56 pm 14:56 Sunny 84 28.9 61 16.1 46 46 SE 13 20 29.52 1000 10 16 0.00 0.00
3:56 pm 15:56 Sunny 86 30 61 16.1 43 43 S 14 22 29.49 999 10 16 0.00 0.00
4:56 pm 16:56 Sunny 86 30 63 17.2 46 46 SSE 20 31 29.46 998 10 16 0.00 0.00
5:56 pm 17:56 Sunny 84 28.9 63 17.2 49 49 SSE 23 37 29.44 997 10 16 0.00 0.00
6:56 pm 18:56 Sunny 82 27.8 62 16.7 51 51 SSE 18 30 29.43 997 10 16 0.00 0.00
7:56 pm 19:56 Sunny 80 26.7 63 17.2 56 56 SE 16 26 29.41 996 10 16 0.00 0.00
8:56 pm 20:56 Sunny 78 25.6 64 17.8 62 62 SE 14 22 29.40 996 10 16 0.00 0.00
9:56 pm 21:56 Clear 76 24.4 65 18.3 69 69 SE 14 22 29.39 995 10 16 0.00 0.00
10:56 pm 22:56 Clear 76 24.4 66 18.9 72 72 SSE 24 39 29.36 994 10 16 0.00 0.00
11:56 pm 23:56 Clear 76 24.4 67 19.4 74 74 SSE 23 37 29.34 994 10 16 0.00 0.00

Powered by AerisWeather